This is the latest recevied weather packets stored in our database for station/object WA7CUG. If no packets are shown the sender has not sent any weather packets the latest 10 day(s).
| Time | Temp. | Humidity | Pressure | Rain* | Wind** | Luminosity | Snow |
|---|---|---|---|---|---|---|---|
| 1777883350 | 12.78° C | 61% | 1010.1 hPa | 0 mm | - | 0 W/m² | - |
| 1777883048 | 12.78° C | 63% | 1010.1 hPa | 0 mm | - | 0 W/m² | - |
| 1777882744 | 12.78° C | 65% | 1009.9 hPa | 0 mm | - | 0 W/m² | - |
| 1777882441 | 14.44° C | 57% | 1010.2 hPa | 0 mm | - | 0 W/m² | - |
| 1777882136 | 13.89° C | 56% | 1009.9 hPa | 0 mm | - | 0 W/m² | - |
| 1777881834 | 13.89° C | 58% | 1010.1 hPa | 0 mm | - | 0 W/m² | - |
| 1777881530 | 13.89° C | 57% | 1009.9 hPa | 0 mm | - | 0 W/m² | - |
| 1777881228 | 13.89° C | 60% | 1010.1 hPa | 0 mm | - | 0 W/m² | - |
| 1777880925 | 13.89° C | 57% | 1009.9 hPa | 0 mm | - | 0 W/m² | - |
| 1777880623 | 13.89° C | 57% | 1009.8 hPa | 0 mm | - | 0 W/m² | - |
| 1777880321 | 13.33° C | 61% | 1009.7 hPa | 0 mm | - | 0 W/m² | - |
| 1777880019 | 13.33° C | 61% | 1009.9 hPa | 0 mm | - | 0 W/m² | - |
| 1777879717 | 13.89° C | 65% | 1009.7 hPa | 0 mm | - | 0 W/m² | - |
| 1777879413 | 14.44° C | 56% | 1009.7 hPa | 0 mm | - | 0 W/m² | - |
| 1777879111 | 15° C | 58% | 1009.7 hPa | 0 mm | - | 0 W/m² | - |
| 1777878807 | 15.56° C | 57% | 1009.8 hPa | 0 mm | - | 0 W/m² | - |
| 1777878505 | 15° C | 56% | 1009.6 hPa | 0 mm | - | 0 W/m² | - |
| 1777878201 | 15° C | 53% | 1009.7 hPa | 0 mm | - | 0 W/m² | - |
| 1777877898 | 14.44° C | 63% | 1009.7 hPa | 0 mm | - | 0 W/m² | - |
| 1777877595 | 14.44° C | 56% | 1009.6 hPa | 0 mm | - | 0 W/m² | - |
| 1777877291 | 15° C | 57% | 1009.6 hPa | 0 mm | - | 0 W/m² | - |
| 1777876989 | 15.56° C | 58% | 1009.6 hPa | 0 mm | - | 0 W/m² | - |
| 1777876686 | 15° C | 54% | 1009.2 hPa | 0 mm | - | 0 W/m² | - |
| 1777876384 | 15° C | 53% | 1009.5 hPa | 0 mm | - | 0 W/m² | - |
| 1777876080 | 15° C | 60% | 1009.5 hPa | 0 mm | - | 0 W/m² | - |
* Rain latest hour (hover to see other rain measurements)
** Current wind speed in m/s (hover to see current wind gust speed)